This is the latest recevied weather packets stored in our database for station/object IW7DVM-13. If no packets are shown the sender has not sent any weather packets the latest 10 day(s).
| Time | Temp. | Humidity | Pressure | Rain* | Wind** | Luminosity | Snow |
|---|---|---|---|---|---|---|---|
| 1787906103 | 32.22° C | 58% | 1011.4 hPa | 0 mm | - | - | - |
| 1787905803 | 32.78° C | 57% | 1011.4 hPa | 0 mm | - | - | - |
| 1787905503 | 32.78° C | 56% | 1011.3 hPa | 0 mm | - | - | - |
| 1787905203 | 32.78° C | 58% | 1011.4 hPa | 0 mm | - | - | - |
| 1787904903 | 32.22° C | 58% | 1011.3 hPa | 0 mm | - | - | - |
| 1787904603 | 31.67° C | 59% | 1011.5 hPa | 0 mm | - | - | - |
| 1787904303 | 31.67° C | 60% | 1011.3 hPa | 0 mm | - | - | - |
| 1787904003 | 31.11° C | 60% | 1011.2 hPa | 0 mm | - | - | - |
| 1787903703 | 31.67° C | 60% | 1011.2 hPa | 0 mm | - | - | - |
| 1787903403 | 32.22° C | 59% | 1011.1 hPa | 0 mm | - | - | - |
| 1787903103 | 32.22° C | 59% | 1011.3 hPa | 0 mm | - | - | - |
| 1787902803 | 32.22° C | 59% | 1011.3 hPa | 0 mm | - | - | - |
| 1787902503 | 32.22° C | 59% | 1011.2 hPa | 0 mm | - | - | - |
| 1787902203 | 31.67° C | 59% | 1011.2 hPa | 0 mm | - | - | - |
| 1787901903 | 31.67° C | 58% | 1011.2 hPa | 0 mm | - | - | - |
| 1787901603 | 32.22° C | 57% | 1011.2 hPa | 0 mm | - | - | - |
| 1787901303 | 32.78° C | 54% | 1011.2 hPa | 0 mm | - | - | - |
| 1787901003 | 32.22° C | 55% | 1011.2 hPa | 0 mm | - | - | - |
| 1787900703 | 32.22° C | 56% | 1011.2 hPa | 0 mm | - | - | - |
| 1787900403 | 31.67° C | 58% | 1011.3 hPa | 0 mm | - | - | - |
| 1787900103 | 30.56° C | 60% | 1011.2 hPa | 0 mm | - | - | - |
| 1787899803 | 30.56° C | 61% | 1011.3 hPa | 0 mm | - | - | - |
| 1787899503 | 30.56° C | 62% | 1011.3 hPa | 0 mm | - | - | - |
| 1787899203 | 30° C | 62% | 1011.2 hPa | 0 mm | - | - | - |
| 1787898903 | 29.44° C | 62% | 1011.3 hPa | 0 mm | - | - | - |
* Rain latest hour (hover to see other rain measurements)
** Current wind speed in m/s (hover to see current wind gust speed)